Stündliche Wetter Abramiha

Heute, 23 Juni, Mittwoch

Zeit Temperatur Niederschläge Wind Luftdruck Luftfeuchtigkeit
00:00 +21°C° 0 mm 2 m/S 743 mmHg 86%
01:00 +21°C° 0 mm 2 m/S 743 mmHg 88%
02:00 +20°C° 0 mm 2 m/S 743 mmHg 91%
03:00 +21°C° 0 mm 2 m/S 743 mmHg 90%
04:00 +22°C° 0 mm 1 m/S 744 mmHg 89%
05:00 +23°C° 0 mm 1 m/S 744 mmHg 88%
06:00 +24°C° 0 mm 2 m/S 744 mmHg 81%
07:00 +26°C° 0 mm 2 m/S 744 mmHg 75%
08:00 +28°C° 0 mm 2 m/S 744 mmHg 68%
09:00 +29°C° 0 mm 2 m/S 744 mmHg 63%
10:00 +30°C° 0 mm 3 m/S 744 mmHg 58%
11:00 +31°C° 0 mm 3 m/S 744 mmHg 53%
12:00 +33°C° 0 mm 3 m/S 744 mmHg 49%
13:00 +33°C° 0 mm 3 m/S 744 mmHg 46%
14:00 +34°C° 0 mm 3 m/S 744 mmHg 42%
15:00 +34°C° 0 mm 2 m/S 744 mmHg 46%
16:00 +32°C° 0 mm 2 m/S 743 mmHg 50%
17:00 +32°C° 0 mm 2 m/S 743 mmHg 54%
18:00 +30°C° 0 mm 2 m/S 743 mmHg 59%
19:00 +28°C° 0 mm 2 m/S 743 mmHg 64%
20:00 +25°C° 0 mm 2 m/S 743 mmHg 70%
21:00 +24°C° 0 mm 2 m/S 743 mmHg 70%
22:00 +24°C° 0 mm 2 m/S 743 mmHg 70%
23:00 +23°C° 0 mm 2 m/S 743 mmHg 70%

Morgen, 24 Juni, Donnerstag

Zeit Temperatur Niederschläge Wind Luftdruck Luftfeuchtigkeit
00:00 +21°C° 0 mm 2 m/S 743 mmHg 74%
01:00 +21°C° 0 mm 2 m/S 743 mmHg 78%
02:00 +20°C° 0 mm 2 m/S 743 mmHg 81%
03:00 +21°C° 0 mm 2 m/S 743 mmHg 82%
04:00 +21°C° 0 mm 2 m/S 743 mmHg 84%
05:00 +23°C° 0 mm 2 m/S 743 mmHg 85%
06:00 +24°C° 0 mm 2 m/S 743 mmHg 80%
07:00 +26°C° 0 mm 2 m/S 743 mmHg 74%
08:00 +28°C° 0 mm 2 m/S 743 mmHg 69%
09:00 +29°C° 0 mm 2 m/S 743 mmHg 64%
10:00 +30°C° 0 mm 2 m/S 743 mmHg 59%
11:00 +32°C° 0 mm 2 m/S 743 mmHg 54%
12:00 +32°C° 0 mm 2 m/S 743 mmHg 51%
13:00 +34°C° 0 mm 2 m/S 743 mmHg 49%
14:00 +34°C° 0 mm 2 m/S 743 mmHg 46%
15:00 +34°C° 0 mm 2 m/S 742 mmHg 50%
16:00 +32°C° 0 mm 2 m/S 742 mmHg 54%
17:00 +32°C° 0 mm 2 m/S 742 mmHg 57%
18:00 +30°C° 0 mm 2 m/S 742 mmHg 63%
19:00 +28°C° 0 mm 2 m/S 742 mmHg 68%
20:00 +26°C° 0 mm 2 m/S 742 mmHg 73%
21:00 +25°C° 0 mm 2 m/S 742 mmHg 75%
22:00 +25°C° 0 mm 2 m/S 741 mmHg 77%
23:00 +24°C° 0 mm 2 m/S 741 mmHg 78%

übermorgen, 25 Juni, Freitag

Zeit Temperatur Niederschläge Wind Luftdruck Luftfeuchtigkeit
00:00 +23°C° 0.1 mm 2 m/S 741 mmHg 83%
01:00 +22°C° 0.1 mm 1 m/S 741 mmHg 87%
02:00 +21°C° 0.1 mm 1 m/S 741 mmHg 91%
03:00 +22°C° 0.1 mm 1 m/S 741 mmHg 90%
04:00 +23°C° 0.1 mm 2 m/S 741 mmHg 90%
05:00 +23°C° 0.1 mm 2 m/S 741 mmHg 89%
06:00 +25°C° 0 mm 2 m/S 741 mmHg 82%
07:00 +27°C° 0 mm 2 m/S 741 mmHg 75%
08:00 +29°C° 0 mm 2 m/S 741 mmHg 68%
09:00 +30°C° 0 mm 2 m/S 741 mmHg 62%
10:00 +31°C° 0 mm 2 m/S 741 mmHg 56%
11:00 +33°C° 0 mm 3 m/S 741 mmHg 50%
12:00 +34°C° 0 mm 3 m/S 741 mmHg 49%
13:00 +34°C° 0 mm 3 m/S 741 mmHg 48%
14:00 +34°C° 0 mm 3 m/S 741 mmHg 47%
15:00 +30°C° 1.2 mm 4 m/S 740 mmHg 57%
16:00 +27°C° 1.2 mm 5 m/S 740 mmHg 67%
17:00 +23°C° 1.2 mm 6 m/S 739 mmHg 77%
18:00 +21°C° 1.4 mm 4 m/S 739 mmHg 82%
19:00 +20°C° 1.4 mm 3 m/S 740 mmHg 87%
20:00 +19°C° 1.4 mm 2 m/S 740 mmHg 93%
21:00 +18°C° 0.1 mm 2 m/S 740 mmHg 93%
22:00 +19°C° 0.1 mm 1 m/S 739 mmHg 94%
23:00 +19°C° 0.1 mm 1 m/S 739 mmHg 95%

26 Juni, Samstag

Zeit Temperatur Niederschläge Wind Luftdruck Luftfeuchtigkeit
00:00 +19°C° 0 mm 1 m/S 739 mmHg 95%
01:00 +18°C° 0 mm 2 m/S 739 mmHg 95%
02:00 +18°C° 0 mm 2 m/S 739 mmHg 94%
03:00 +18°C° 0 mm 2 m/S 739 mmHg 94%
04:00 +18°C° 0 mm 2 m/S 739 mmHg 93%
05:00 +18°C° 0 mm 2 m/S 739 mmHg 92%
06:00 +20°C° 0 mm 2 m/S 739 mmHg 85%
07:00 +23°C° 0 mm 2 m/S 739 mmHg 77%
08:00 +25°C° 0 mm 2 m/S 739 mmHg 69%
09:00 +27°C° 0 mm 2 m/S 739 mmHg 65%
10:00 +28°C° 0 mm 2 m/S 739 mmHg 61%
11:00 +30°C° 0 mm 3 m/S 739 mmHg 57%
12:00 +31°C° 0 mm 3 m/S 739 mmHg 55%
13:00 +31°C° 0 mm 2 m/S 739 mmHg 53%
14:00 +32°C° 0 mm 2 m/S 738 mmHg 50%
15:00 +31°C° 0.2 mm 2 m/S 738 mmHg 56%
16:00 +30°C° 0.2 mm 2 m/S 737 mmHg 62%
17:00 +30°C° 0.2 mm 2 m/S 737 mmHg 67%
18:00 +27°C° 1.8 mm 2 m/S 737 mmHg 74%
19:00 +24°C° 1.8 mm 2 m/S 737 mmHg 81%
20:00 +20°C° 1.8 mm 2 m/S 738 mmHg 88%
21:00 +20°C° 0.9 mm 2 m/S 738 mmHg 89%
22:00 +19°C° 0.9 mm 2 m/S 738 mmHg 91%
23:00 +19°C° 0.9 mm 2 m/S 738 mmHg 93%

27 Juni, Sonntag

Zeit Temperatur Niederschläge Wind Luftdruck Luftfeuchtigkeit
00:00 +19°C° 0.6 mm 2 m/S 738 mmHg 94%
01:00 +19°C° 0.6 mm 2 m/S 738 mmHg 95%
02:00 +19°C° 0.6 mm 1 m/S 738 mmHg 95%
03:00 +20°C° 0 mm 1 m/S 738 mmHg 94%
04:00 +20°C° 0 mm 1 m/S 737 mmHg 93%
05:00 +21°C° 0 mm 1 m/S 737 mmHg 92%
06:00 +22°C° 0 mm 1 m/S 737 mmHg 85%
07:00 +24°C° 0 mm 1 m/S 738 mmHg 77%
08:00 +26°C° 0 mm 2 m/S 738 mmHg 70%
09:00 +27°C° 0 mm 2 m/S 738 mmHg 65%
10:00 +28°C° 0 mm 2 m/S 738 mmHg 61%
11:00 +30°C° 0 mm 2 m/S 738 mmHg 56%
12:00 +30°C° 0 mm 2 m/S 738 mmHg 55%
13:00 +31°C° 0 mm 2 m/S 738 mmHg 54%
14:00 +31°C° 0 mm 2 m/S 737 mmHg 53%
15:00 +28°C° 5.4 mm 3 m/S 738 mmHg 66%
16:00 +24°C° 5.4 mm 3 m/S 738 mmHg 79%
17:00 +20°C° 5.4 mm 4 m/S 738 mmHg 92%
18:00 +20°C° 0.7 mm 3 m/S 738 mmHg 92%
19:00 +19°C° 0.7 mm 3 m/S 737 mmHg 93%
20:00 +19°C° 0.7 mm 2 m/S 737 mmHg 93%
21:00 +19°C° 0.1 mm 2 m/S 737 mmHg 94%
22:00 +18°C° 0.1 mm 2 m/S 737 mmHg 95%
23:00 +18°C° 0.1 mm 2 m/S 737 mmHg 96%

28 Juni, Montag

Zeit Temperatur Niederschläge Wind Luftdruck Luftfeuchtigkeit
00:00 +18°C° 0 mm 2 m/S 737 mmHg 96%
01:00 +19°C° 0 mm 1 m/S 736 mmHg 96%
02:00 +19°C° 0 mm 1 m/S 736 mmHg 96%
03:00 +19°C° 0 mm 1 m/S 736 mmHg 96%
04:00 +20°C° 0 mm 1 m/S 737 mmHg 96%
05:00 +20°C° 0 mm 1 m/S 737 mmHg 96%
06:00 +22°C° 0.3 mm 1 m/S 737 mmHg 91%
07:00 +23°C° 0.3 mm 1 m/S 737 mmHg 87%
08:00 +24°C° 0.3 mm 1 m/S 737 mmHg 82%
09:00 +24°C° 0 mm 1 m/S 737 mmHg 81%
10:00 +25°C° 0 mm 2 m/S 737 mmHg 80%
11:00 +25°C° 0 mm 2 m/S 737 mmHg 79%
12:00 +25°C° 0.6 mm 2 m/S 737 mmHg 80%
13:00 +26°C° 0.6 mm 2 m/S 737 mmHg 80%
14:00 +26°C° 0.6 mm 2 m/S 737 mmHg 81%
15:00 +25°C° 1 mm 2 m/S 736 mmHg 84%
16:00 +25°C° 1 mm 2 m/S 736 mmHg 87%
17:00 +24°C° 1 mm 2 m/S 736 mmHg 90%
18:00 +23°C° 0.2 mm 2 m/S 736 mmHg 92%
19:00 +21°C° 0.2 mm 2 m/S 736 mmHg 93%
20:00 +20°C° 0.2 mm 3 m/S 736 mmHg 95%
21:00 +20°C° 0 mm 2 m/S 736 mmHg 96%
22:00 +19°C° 0 mm 2 m/S 736 mmHg 97%
23:00 +19°C° 0 mm 2 m/S 736 mmHg 98%
Mehr zeigen

Wir brauchen deine Erlaubnis

Meteoprog und unser Service Anbieter werden persönliche Daten aufbewahren, so wie Cookies, Geräte Bezeichnung oder ähnliche Technologien von deinem Gerät und Prozess, so wie Persönliche Daten Inhalte und Werbungen, genauso wie social Media und den Verkehr zu analysieren.

  • Aufbewahrung und/oder Zugang zu deiner Geräte Informationen.

    Cookies, Geräte Bezeichnung oder andere Informationen, können aufbewahrt oder Zugang zu deinem Gerät erhalten, für den Grund, der oben angegeben wird.

  • Personalisierte Werbung und Inhalte, Messungen, Einblick in das Publikum und Produkt Entwicklung.

    Werbungen und Inhalte können personalisiert werden, basierend auf ein Profil. Mehr Daten können besser personalisierte Werbungen und Inhalte hinzufügen. Werbung und Inhalte können gezeigt und gemessen werden. Einblicke über das Publikum, welche die Werbung gesehen haben und den Inhalt, können abgeleitet werden. So wie Daten können genutzt werden, um es zu verbessern oder die Benutzer Erfahrung zu verbessern das System und die Software.

Wenn du “Ich stimme zu” klickst, erlaubst du uns, die Cookies zu benutzen die Geräte Bezeichnung, den Web oder ähnliche Technologien zu benutzen. Deine Settings, können in deinem Gerät bei deinem Browser geändert werden.

Für den bestimmten Zweck, berechtigten Interessen beruhen darauf, mehr als auf den Inhalt. Du kannst mehr darüber in unseren Privaten und Cookie Politik lesen.